Tracking 23645 objects as of 21-Sep-2021
HD Live streaming from Space Station
objects crossing your sky now

FENGYUN 1B

Track FENGYUN 1B now!
10-day predictions
FENGYUN 1B is classified as:


NORAD ID: 20788
Int'l Code: 1990-081A
Perigee: 879.0 km
Apogee: 904.0 km
Inclination: 98.8 °
Period: 102.7 minutes
Semi major axis: 7262 km
RCS: 3.0595 m2 (large)
Launch date: September 3, 1990
Source: People's Republic of China (PRC)
Launch site: Taiyaun Space Center, China (TSC)
aabbcc
Your satellite tracking list
Your tracking list is empty




NASA's NSSDC Master Catalog

Two Line Element Set (TLE):
1 20788U 90081A   21263.88333162 -.00000272  00000-0 -14842-3 0  9996
2 20788  98.8033 260.6570 0017189 112.9300 247.3683 14.02733202588936
Source of the keplerian elements: AFSPC